User: anonymous   Login
Location: Unspecified
(0.0000°N, 0.0000°E)
Time: 12:22:52
(UTC+00:00)
Language:

USA 139 - Orbit

View from above orbital plane
View from above orbital plane
View from above satellite
View from above satellite

Ground track
Ground track

The orbit data is extracted from the following two-line orbital elements,

1 25336U 98029A   17085.55586789 0.00000000  00000-0  00000-0 0    04
2 25336   9.0815 357.9371 0036709 236.7053 122.9514  1.00270000    04
Epoch (UTC): 26 March 2017 13:20:26
Eccentricity: 0.0036709
inclination: 9.0815°
perigee height: 35632 km
apogee height: 35941 km
right ascension of ascending node: 357.9371°
argument of perigee: 236.7053°
revolutions per day: 1.00270000
mean anomaly at epoch: 122.9514°
orbit number at epoch: 0

The dashed part of the orbit path shows where the satellite is in the earth's shadow,  

DLR